Location: Unspecified
(0.0000°N, 0.0000°E)
Time: 14:39:53
(UTC+00:00)

STARLINK-34921 - Pass Details

Date: 21 February 2026
Orbit: 474 x 476 km, 53.2° (Epoch: 14 March)

Event Time Altitude Azimuth Distance (km) Brightness Sun altitude
Rises 19:43:02 0° 222° (SW) 2,513 6.8 -22.0°
Reaches altitude 10° 19:45:13 10° 226° (SW) 1,633 5.8 -22.5°
Maximum altitude 19:48:49 52° 304° (WNW) 589 2.9 -23.4°
Enters shadow 19:48:53 52° 309° (NW) 590 2.9 -23.4°
